{"data":{"norad_id":42807,"intl_designator":"2017-039E","name":"IRIDIUM 118","alt_names":[],"object_type":"PAYLOAD","status":"ACTIVE","operator":null,"country":"US","launch_date":"2017-06-25","launch_site_code":"AFWTR","launch_vehicle":null,"mission":null,"orbit_class":"UNKNOWN","rcs_meters":null,"size_class":null,"mass_kg":null,"dimensions":null,"purposes":["comms"],"wikipedia_slug":null,"has_3d_model":false,"image_url":null,"decayed_at":null,"tle_current":{"epoch":"2026-09-19T01:58:42.935232Z","epoch_age_seconds":138048,"freshness":"FRESH","line1":"1 42807U 17039E   26262.08244138  .00000107  00000+0  31297-4 0  9992","line2":"2 42807  86.3975 314.4077 0002248  94.9692 265.1760 14.34218072483400","mean_motion":14.34218072,"eccentricity":0.0002248,"inclination_deg":86.3975,"raan_deg":314.4077,"arg_perigee_deg":94.9692,"mean_anomaly_deg":265.176,"bstar":3.1297e-5,"rev_number":48340,"period_min":100.40314148266,"perigee_km":776.05745877495,"apogee_km":779.2747078412,"semimajor_km":7155.8030833081,"source":"CELESTRAK","updated_at":"2026-09-20T09:00:36.322719Z"}}}